This demonstration page uses our WeatherBlox Daily Observations layout. Learn more.

36.17497, -115.13722

Hourly Observations for June 23, 2015

Temp ( °F °C ) Dew Point ( °F °C ) Humidity (%) Winds ( mph kmh ) Pressure ( in mb ) Visibility ( mi km ) Precip ( " mm )
12:53 am 00:53 Clear 86 30 11 -11.7 6 6 Calm 29.8 1009 10 16.0934 0 0
1:53 am 01:53 Clear 82 27.8 16 -8.9 8 8 NW 7 11 29.8 1009 10 16.0934 0 0
2:53 am 02:53 Clear 80 26.7 10 -12.2 7 7 NW 8 13 29.81 1010 10 16.0934 0 0
3:53 am 03:53 Clear 79 26.1 14 -10 8 8 NNW 8 13 29.81 1010 10 16.0934 0 0
4:53 am 04:53 Clear 77 25 15 -9.4 9 9 NNW 3 6 29.83 1010 10 16.0934 0 0
5:53 am 05:53 Sunny 78 25.6 14 -10 9 9 NW 6 9 29.85 1011 10 16.0934 0 0
6:53 am 06:53 Sunny 81 27.2 17 -8.3 9 9 Calm 29.87 1012 10 16.0934 0 0
7:53 am 07:53 Sunny 84 28.9 15 -9.4 7 7 Calm 29.88 1012 10 16.0934 0 0
8:53 am 08:53 Sunny 86 30 15 -9.4 7 7 Calm 29.89 1012 10 16.0934 0 0
9:53 am 09:53 Sunny 93 33.9 22 -5.6 7 7 Calm 29.88 1012 10 16.0934 0 0
10:53 am 10:53 Sunny 94 34.4 28 -2.2 9 9 SW 5 7 29.87 1012 10 16.0934 0 0
11:53 am 11:53 Sunny 97 36.1 32 0 10 10 S 6 9 29.86 1011 10 16.0934 0 0
12:53 pm 12:53 Sunny 101 38.3 35 1.7 10 10 VRB 3 6 29.83 1010 10 16.0934 0 0
1:53 pm 13:53 Sunny 103 39.4 38 3.3 11 11 SSE 10 17 29.8 1009 10 16.0934 0 0
2:53 pm 14:53 Sunny 104 40 39 3.9 11 11 ESE 8 13 29.78 1008 10 16.0934 0 0
3:53 pm 15:53 Sunny 105 40.6 37 2.8 10 10 ESE 10 17 29.75 1008 10 16.0934 0 0
4:53 pm 16:53 Sunny 105 40.6 34 1.1 8 8 SE 9 15 29.73 1007 10 16.0934 0 0
5:53 pm 17:53 Sunny 105 40.6 29 -1.7 7 7 ESE 10 17 29.71 1006 10 16.0934 0 0
6:53 pm 18:53 Sunny 104 40 18 -7.8 4 4 SW 13 20 29.72 1006 10 16.0934 0 0
7:53 pm 19:53 Sunny 101 38.3 16 -8.9 4 4 W 10 17 29.73 1007 10 16.0934 0 0
8:53 pm 20:53 Clear 98 36.7 14 -10 4 4 WSW 9 15 29.74 1007 10 16.0934 0 0
9:53 pm 21:53 Clear 95 35 15 -9.4 5 5 S 5 7 29.76 1008 10 16.0934 0 0
10:53 pm 22:53 Clear 92 33.3 16 -8.9 6 6 SSW 6 9 29.77 1008 10 16.0934 0 0
11:53 pm 23:53 Clear 87 30.6 18 -7.8 8 8 NW 7 11 29.77 1008 10 16.0934 0 0

Powered by AerisWeather